Zurück zum Katalog

STARLINK-11675

AktivKommunikationVLEO
NORAD 64235·PAYLOAD·🇺🇸 United States

Gestartet Jun 3, 2025 von Cape Canaveral Space Force Station

Loading…

Nächste Überflüge (nächste 24 Stunden)

TLE

AktuellSource: CelesTrak SupGP

Epoche: Sep 15, 2026, 03:58 UTC

1 64235C 25119C   26258.16576389  .00107190  00000+0  83249-3 0  2580
2 64235  43.0003 147.0754 0001622 265.7581  97.9761 15.70787168    15

Verfolge STARLINK-11675 in Echtzeit mit AllMySat

Download on the App Store